Observations for Trim Patrick St
| Time | AQI | Temp °C | Hum % | Pres Pa | CO μg/m³ | H₂S μg/m³ | NO μg/m³ | NO₂ μg/m³ | O₃ μg/m³ | SO₂ μg/m³ | PM1 μg/m³ | PM2.5 μg/m³ | PM10 μg/m³ |
|---|---|---|---|---|---|---|---|---|---|---|---|---|---|
| Sunday 9 August 2026 | |||||||||||||
| 07:38 | 2 | 18.1 | 75 | 38,460 | 0.12 | 5.27 | 1.8 | 13.74 | 36.86 | 1.63 | 5.43 | 9.08 | 9.98 |
| 07:37 | 2 | 18.1 | 75 | 38,460 | 0.12 | 4.78 | 1.82 | 15.99 | 31.74 | 1.88 | 6.29 | 10.5 | 11.55 |
| 07:36 | 2 | 18.1 | 75 | 38,460 | 0.11 | 4.96 | 1.83 | 26.44 | 27.66 | 1.56 | 5.43 | 8.36 | 9.2 |
| 07:35 | 2 | 18.1 | 75 | 38,460 | 0.11 | 6.27 | 1.82 | 29.98 | 25.99 | 3.59 | 6.29 | 9.08 | 9.99 |
| 07:34 | 2 | 18.1 | 75 | 38,460 | 0.12 | 7.19 | 1.86 | 22.81 | 30.85 | 1.39 | 5.43 | 9.08 | 9.98 |
| 07:33 | 2 | 18.1 | 75 | 38,460 | 0.12 | 6.11 | 1.81 | 27.97 | 31.39 | 1.65 | 4.57 | 8.37 | 9.21 |
| 07:32 | 2 | 18.1 | 75 | 38,460 | 0.12 | 6.24 | 1.8 | 29.48 | 29.54 | 1.21 | 3.71 | 6.95 | 7.64 |
| 07:31 | 2 | 18.1 | 75 | 38,460 | 0.11 | 4.33 | 1.79 | 12.84 | 37.78 | 1.71 | 4.57 | 9.08 | 9.99 |
| 07:30 | 2 | 18.1 | 75 | 38,460 | 0.11 | 3.36 | 1.8 | 14.37 | 30.49 | 2.08 | 6.29 | 11.2 | 12.32 |
| 07:29 | 2 | 18.1 | 75 | 38,460 | 0.11 | 5.04 | 1.68 | 18.51 | 32.32 | 1.91 | 4.57 | 8.37 | 9.21 |
| 07:28 | 2 | 18.1 | 75 | 38,460 | 0.12 | 5.61 | 1.58 | 16.59 | 31.57 | 1.61 | 4.57 | 8.37 | 9.21 |
| 07:27 | 2 | 18 | 75 | 38,460 | 0.13 | 7.63 | 1.54 | 23.99 | 37.31 | 1.95 | 7.14 | 10.54 | 11.59 |
| 07:26 | 2 | 18 | 75 | 38,460 | 0.13 | 6.14 | 1.54 | 32.32 | 32.21 | 1.1 | 7.14 | 10.5 | 11.55 |
| 07:25 | 2 | 18 | 75 | 38,460 | 0.12 | 4.23 | 1.51 | 19.13 | 33.77 | 1.72 | 5.43 | 9.09 | 10 |
| 07:24 | 2 | 18 | 74 | 38,460 | 0.1 | 4.2 | 1.72 | 13.64 | 34.71 | 1.29 | 5.43 | 9.87 | 10.85 |
| 07:23 | 2 | 18 | 75 | 38,460 | 0.11 | 5.54 | 1.8 | 17.11 | 32.19 | 1.27 | 7.14 | 10.54 | 11.59 |
| 07:22 | 2 | 18 | 75 | 38,460 | 0.1 | 6.35 | 1.81 | 29.59 | 34.31 | 0.81 | 7.14 | 9.81 | 10.79 |
| 07:21 | 2 | 18 | 75 | 38,460 | 0.1 | 5.33 | 1.82 | 14.66 | 32.08 | 1.57 | 6.29 | 10.51 | 11.56 |
| 07:20 | 2 | 18 | 75 | 38,460 | 0.11 | 5.9 | 1.81 | 20.65 | 31.76 | 1.22 | 5.43 | 9.1 | 10.01 |
| 07:19 | 2 | 18 | 74 | 38,460 | 0.11 | 6.01 | 1.81 | 21.04 | 47.01 | 1.02 | 5.43 | 9.18 | 10.09 |